THORAD DELTA 1 R/B(2), 9330

Orbit data source: Space-Track

THORAD DELTA 1 R/B(2), 9330 is space debris in HEO originally from a launch on Thu, 19 Dec 1974 UTC launched from the Air Force Eastern Test Range (AFETR). Debris objects in space refer to the collection of defunct objects orbiting the Earth. Examples of debris include non-operational satellites, rocket bodies, and fragments generated from explosions, collisions, or faulty payload assembly.

Loading next visibility...
Identifier
9330, 1974-101G
Orbit
HEO
Country
Flag of USUS
Related business
Manufacturer
Thiokol/TE
Mission
Spacecraft
Bus & Motor
STAR 37, Unknown motor
Mass
~83 kg wet, 83 kg dry
Launch date (UTC)
1974-12-19 (51 years ago)
Launch vehicle
Unknown
Launch site
Air Force Eastern Test Range (AFETR)
Object type
Payload
Rocket body
Debris
Shape & HBR
Unknown
Radar Cross Section
Large (>1 m²)

Expand to show TLE details & history
Last TLE update: 3 days ago

TLE from 3 days ago
0 THORAD DELTA 1 R/B(2)
1 09330U 74101G   26092.80412494  .00000632  00000-0  18554-2 0  9995
2 09330  13.2096 345.7113 7199017 218.5276  57.0706  2.31207518417306
Epoch: 2026-04-02T19:17Z
TLE epoch observation values (Epoch: 2026-04-02T19:17:56.394Z)
Latitude
-0.00003°
Longitude
-134.98608°
Altitude
20,225.283 km
Speed
3.67 km/s
True Right ascension
23h 02m 35s
True Declination
0° 00' 00"
Sunlit
Object was in daylight at epoch
Visualization orbit readout
Latitude
Unknown
Longitude
Unknown
Altitude
Unknown
Speed
Unknown
Apparent Right ascension
Unknown
Apparent Declination
Unknown
Sunlit
N/A
Visualization observer readout
Local Sidereal Time
01:03:42
Azimuth
Unknown
Elevation
Unknown
Doppler factor
Unknown
Orbital elements
Apogee altitude
35,180.514 km
Perigee altitude
389.987 km
Semi-major axis
24,163.387 km
Eccentricity
0.7199
Inclination
13.2096°
RAAN
345.7113°
Arg. of periapsis
218.5276°
True anomaly
141.28978°
Mean anomaly
57.0706°
Eccentric anomaly
97.92408°
Mean motion
0.57784 °/min
Orbital period
623.01 mins
BSTAR
0.0018554
Loading maneuver chart data...
Computing Atmospheric mass density...
Loading historical data...
Loading historical data...
Loading historical data...
Loading historical data...
Loading historical data...
Loading historical data...
Loading historical data...

Documentation

Showing up to 5 results
|